IU1FIL-23 Weather Reports


time (UTC)temp
C
wind
direction
speed
KPH
gust
KPH
rain 1hr
cm
rain 24hr
cm
rain mn
cm
humidity
%
barometer
mb
20260506224357 8 0.0 0.0 0.00 0.00 0.00 10 1012.6
20260506223352 8 0.0 0.0 0.00 0.00 0.00 10 1012.6
20260506222346 8 0.0 0.0 0.00 0.00 0.00 10 1012.6
20260506221341 8 0.0 0.0 0.00 0.00 0.00 10 1012.5
20260506220336 8 0.0 0.0 0.00 0.00 0.00 10 1012.4
20260506215330 8 0.0 0.0 0.00 0.00 0.00 10 1012.4
20260506214325 8 0.0 0.0 0.00 0.00 0.00 10 1012.5
20260506213320 8 0.0 0.0 0.00 0.00 0.00 10 1012.5
20260506212258 9 0.0 0.0 0.00 0.00 0.00 10 1012.6
20260506211253 8 0.0 0.0 0.00 0.00 0.00 10 1012.5
20260506210248 8 0.0 0.0 0.00 0.00 0.00 10 1012.6
20260506205242 8 0.0 0.0 0.00 0.00 0.00 10 1012.5
20260506204222 8 0.0 0.0 0.00 0.00 0.00 10 1012.2
20260506203215 9 0.0 0.0 0.00 0.00 0.00 10 1012.2
20260506202209 10 0.0 0.0 0.00 0.00 0.00 10 1012.2
20260506201204 9 0.0 0.0 0.00 0.00 0.00 10 1012.2
20260506200159 9 0.0 0.0 0.00 0.00 0.00 10 1011.9
20260506195154 8 0.0 0.0 0.00 0.00 0.00 10 1012.0
20260506194150 9 0.0 0.0 0.00 0.00 0.00 10 1011.6
20260506193145 9 0.0 0.0 0.00 0.00 0.00 10 1011.7
20260506192140 9 0.0 0.0 0.00 0.00 0.00 10 1011.3
20260506191136 9 0.0 0.0 0.00 0.00 0.00 10 1011.3
20260506190131 10 0.0 0.0 0.00 0.00 0.00 10 1011.1
20260506185127 10 0.0 0.0 0.00 0.00 0.00 98 1010.9
20260506184122 10 0.0 0.0 0.00 0.00 0.00 93 1010.7
20260506183117 10 0.0 0.0 0.00 0.00 0.00 91 1010.7
20260506182113 10 0.0 0.0 0.00 0.00 0.00 93 1010.4
20260506181108 11 0.0 0.0 0.00 0.00 0.00 92 1010.3
20260506180104 11 0.0 0.0 0.00 0.00 0.00 96 1010.5
20260506175059 11 0.0 0.0 0.00 0.00 0.00 93 1010.0
20260506174541 11 0.0 0.0 0.00 0.00 0.00 93 1010.0
20260506174054 11 0.0 0.0 0.00 0.00 0.00 93 1010.0
20260506173050 11 0.0 0.0 0.00 0.00 0.00 90 1010.1
20260506172045 11 0.0 0.0 0.00 0.00 0.00 92 1010.1
20260506171041 11 0.0 0.0 0.00 0.00 0.00 92 1010.5
20260506170036 11 0.0 0.0 0.00 0.00 0.00 92 1010.1
20260506165031 11 0.0 0.0 0.00 0.00 0.00 88 1010.2
20260506164027 12 0.0 0.0 0.00 0.00 0.00 85 1010.3
20260506163015 12 0.0 0.0 0.00 0.00 0.00 84 1010.0
20260506162011 12 0.0 0.0 0.00 0.00 0.00 90 1010.4
20260506161006 12 0.0 0.0 0.00 0.00 0.00 87 1010.2
20260506160038 12 0.0 0.0 0.00 0.00 0.00 93 1010.5
20260506160002 12 0.0 0.0 0.00 0.00 0.00 93 1010.5
20260506154957 11 0.0 0.0 0.00 0.00 0.00 98 1010.2
20260506153952 12 0.0 0.0 0.00 0.00 0.00 91 1010.2
20260506152935 13 0.0 0.0 0.00 0.00 0.00 85 1010.0
20260506151931 13 0.0 0.0 0.00 0.00 0.00 86 1010.0
20260506150926 12 0.0 0.0 0.00 0.00 0.00 91 1010.2
20260506145921 12 0.0 0.0 0.00 0.00 0.00 10 1010.4
20260506144912 13 0.0 0.0 0.00 0.00 0.00 94 1010.5
20260506143907 12 0.0 0.0 0.00 0.00 0.00 10 1010.6
20260506142903 11 0.0 0.0 0.00 0.00 0.00 10 1010.4
20260506141858 12 0.0 0.0 0.00 0.00 0.00 10 1010.4
20260506140853 11 0.0 0.0 0.00 0.00 0.00 10 1010.3
20260506135849 12 0.0 0.0 0.00 0.00 0.00 10 1010.4
20260506134844 13 0.0 0.0 0.00 0.00 0.00 93 1010.0
20260506133840 12 0.0 0.0 0.00 0.00 0.00 93 1010.4
20260506132835 14 0.0 0.0 0.00 0.00 0.00 88 1010.7
20260506131830 13 0.0 0.0 0.00 0.00 0.00 81 1010.6
20260506130826 13 0.0 0.0 0.00 0.00 0.00 90 1010.5
20260506125821 14 0.0 0.0 0.00 0.00 0.00 86 1011.0
20260506124816 13 0.0 0.0 0.00 0.00 0.00 10 1010.4
20260506123812 12 0.0 0.0 0.00 0.00 0.00 10 1010.6
20260506122807 12 0.0 0.0 0.00 0.00 0.00 10 1010.5
20260506121917 12 0.0 0.0 0.00 0.00 0.00 10 1010.6
20260506121803 12 0.0 0.0 0.00 0.00 0.00 10 1010.6
20260506120758 13 0.0 0.0 0.00 0.00 0.00 10 1010.0
20260506115753 12 0.0 0.0 0.00 0.00 0.00 10 1011.1
20260506114749 12 0.0 0.0 0.00 0.00 0.00 10 1010.4
20260506113744 11 0.0 0.0 0.00 0.00 0.00 10 1010.4
20260506112740 11 0.0 0.0 0.00 0.00 0.00 10 1010.5
20260506111735 12 0.0 0.0 0.00 0.00 0.00 10 1010.4
20260506110730 12 0.0 0.0 0.00 0.00 0.00 98 1010.5
20260506105658 12 0.0 0.0 0.00 0.00 0.00 96 1010.7
20260506104653 12 0.0 0.0 0.00 0.00 0.00 96 1011.1
20260506103649 12 0.0 0.0 0.00 0.00 0.00 98 1010.9
20260506102642 11 0.0 0.0 0.00 0.00 0.00 10 1010.7
20260506100629 12 0.0 0.0 0.00 0.00 0.00 10 1010.7
20260506095625 13 0.0 0.0 0.00 0.00 0.00 87 1010.5
20260506094653 12 0.0 0.0 0.00 0.00 0.00 96 1010.8
20260506094620 12 0.0 0.0 0.00 0.00 0.00 96 1010.8
20260506093616 12 0.0 0.0 0.00 0.00 0.00 96 1010.7
20260506092610 13 0.0 0.0 0.00 0.00 0.00 85 1010.7
20260506091605 13 0.0 0.0 0.00 0.00 0.00 93 1010.5
20260506090601 12 0.0 0.0 0.00 0.00 0.00 10 1010.8
20260506085556 12 0.0 0.0 0.00 0.00 0.00 10 1010.8
20260506084551 12 0.0 0.0 0.00 0.00 0.00 10 1010.5
20260506083547 11 0.0 0.0 0.00 0.00 0.00 10 1010.6
20260506082542 11 0.0 0.0 0.00 0.00 0.00 10 1010.5
20260506081537 11 0.0 0.0 0.00 0.00 0.00 10 1010.4
20260506080532 11 0.0 0.0 0.00 0.00 0.00 10 1010.6
20260506073518 10 0.0 0.0 0.00 0.00 0.00 10 1010.3
20260506072513 10 0.0 0.0 0.00 0.00 0.00 10 1010.3
20260506071508 10 0.0 0.0 0.00 0.00 0.00 10 1010.3
20260506070540 10 0.0 0.0 0.00 0.00 0.00 10 1010.2
20260506070503 10 0.0 0.0 0.00 0.00 0.00 10 1010.2
20260506062430 10 0.0 0.0 0.00 0.00 0.00 10 1009.9
20260506061426 10 0.0 0.0 0.00 0.00 0.00 10 1009.9
20260506060421 11 0.0 0.0 0.00 0.00 0.00 10 1009.9
20260506051358 7 0.0 0.0 0.00 0.00 0.00 10 1009.9
20260506050354 7 0.0 0.0 0.00 0.00 0.00 10 1010.0
20260506044344 7 0.0 0.0 0.00 0.00 0.00 10 1010.1
20260506043339 7 0.0 0.0 0.00 0.00 0.00 10 1010.1
20260506042334 7 0.0 0.0 0.00 0.00 0.00 10 1010.1
20260506041329 7 0.0 0.0 0.00 0.00 0.00 10 1010.6
20260506040323 7 0.0 0.0 0.00 0.00 0.00 10 1010.6
20260506035318 7 0.0 0.0 0.00 0.00 0.00 10 1010.8
20260506034303 7 0.0 0.0 0.00 0.00 0.00 10 1010.3
20260506033258 7 0.0 0.0 0.00 0.00 0.00 10 1010.1
20260506032253 7 0.0 0.0 0.00 0.00 0.00 10 1010.4
20260506031248 7 0.0 0.0 0.00 0.00 0.00 10 1010.3
20260506030242 7 0.0 0.0 0.00 0.00 0.00 10 1010.4
20260506025414 7 0.0 0.0 0.00 0.00 0.00 10 1010.7
20260506025237 7 0.0 0.0 0.00 0.00 0.00 10 1010.7
20260506024314 7 0.0 0.0 0.00 0.00 0.00 10 1010.8
20260506024227 7 0.0 0.0 0.00 0.00 0.00 10 1010.8
20260506023222 7 0.0 0.0 0.00 0.00 0.00 10 1010.7
20260506022217 7 0.0 0.0 0.00 0.00 0.00 10 1011.0
20260506021212 7 0.0 0.0 0.00 0.00 0.00 10 1011.0
20260506020206 7 0.0 0.0 0.00 0.00 0.00 10 1011.2
20260506015202 7 0.0 0.0 0.00 0.00 0.00 10 1011.2
20260506014157 7 0.0 0.0 0.00 0.00 0.00 10 1011.1
20260506013153 7 0.0 0.0 0.00 0.00 0.00 10 1011.1
20260506012148 7 0.0 0.0 0.00 0.00 0.00 10 1011.1
20260506011143 7 0.0 0.0 0.00 0.00 0.00 10 1011.2
20260506010139 7 0.0 0.0 0.00 0.00 0.00 10 1011.3
20260506005134 7 0.0 0.0 0.00 0.00 0.00 10 1011.6
20260506004130 7 0.0 0.0 0.00 0.00 0.00 10 1011.8
20260506003125 7 0.0 0.0 0.00 0.00 0.00 10 1011.7
20260506002120 7 0.0 0.0 0.00 0.00 0.00 10 1011.8
20260506001116 8 0.0 0.0 0.00 0.00 0.00 10 1012.0
20260506000111 8 0.0 0.0 0.00 0.00 0.00 10 1012.5
20260505235107 8 0.0 0.0 0.00 0.00 0.00 10 1012.7
20260505234102 8 0.0 0.0 0.00 0.00 0.00 10 1013.2
20260505233057 8 0.0 0.0 0.00 0.00 0.00 10 1013.3
20260505232053 8 0.0 0.0 0.00 0.00 0.00 10 1013.0
20260505231048 8 0.0 0.0 0.00 0.00 0.00 10 1013.1
20260505230044 8 0.0 0.0 0.00 0.00 0.00 10 1013.1
20260505225039 8 0.0 0.0 0.00 0.00 0.00 10 1013.0